Davenport, IA

11:39 AM CDT on July 26, 2017 (GMT -0500)
Davenport Municipal

Weather History for KDVN - November, 2014

Change the Weather History Date:

Monday, November 24, 2014

  Actual Average Record
Temperature  
Mean Temperature 32 °F 34 °F  
Max Temperature 43 °F 43 °F 63 °F (1966)
Min Temperature 21 °F 26 °F -2 °F (1950)
Degree Days  
Heating Degree Days 33 31  
Month to date heating degree days 781 592  
Since 1 July heating degree days 1370 1152  
Cooling Degree Days 0 0  
Month to date cooling degree days 0 0  
Year to date cooling degree days 728 786  
Moisture  
Dew Point 24 °F    
Average Humidity 84    
Maximum Humidity 93    
Minimum Humidity 74    
Precipitation  
Precipitation 0.13 in 0.06 in 0.86 in (2001)
Month to date precipitation 1.80 2.00  
Year to date precipitation 33.43 33.85  
Snow  
Snow 2.40 in - - ()
Month to date snowfall 4.0  
Since 1 July snowfall 4.0  
Since 1 September snowfall 4.0  
Snow Depth 0.00 in    
Sea Level Pressure  
Sea Level Pressure 29.48 in    
Wind  
Wind Speed 24 mph (West)    
Max Wind Speed 37 mph    
Max Gust Speed 44 mph    
Visibility 3 miles    
Events Fog , Rain , Snow    
T = Trace of Precipitation, MM = Missing Value Source: NWS Daily Summary

Daily Weather History Graph

Daily Weather History Graph

Search for Another Location

Airport or City:

Trip Planner

Search our weather history database for the weather conditions in past years. The results will help you decide how hot, cold, wet, or windy it might be!

Date:

Astronomy

Nov. 24, 2014 Rise Set
Actual Time 7:01 AM CST 4:35 PM CST
Civil Twilight 6:31 AM CST 5:06 PM CST
Nautical Twilight 5:57 AM CST 5:40 PM CST
Astronomical Twilight 5:24 AM CST 6:13 PM CST
Moon 8:54 AM CST (11/24) 6:57 PM CST (11/24)
Length of Visible Light 10h 34m
Length of Day
9h 33m
Waxing Crescent, 6% of the Moon is Illuminated
Nov 24
Waxing Crescent
Nov 29
First Quarter
Dec 6
Full
Dec 14
Last Quarter
Dec 21
New

Hourly Weather History & Observations

Time (CST) Temp. Windchill Dew Point Humidity Pressure Visibility Wind Dir Wind Speed Gust Speed Precip Events Conditions
12:31 AM 42.1 °F 32.8 °F 39.9 °F 92% 29.16 in 5.0 mi NW 21.9 mph 27.6 mph 0.00 in   Overcast
12:52 AM 41.0 °F 32.2 °F 39.0 °F 93% 29.16 in 5.0 mi NW 18.4 mph 32.2 mph 0.00 in   Overcast
1:52 AM 39.9 °F 30.5 °F 37.9 °F 93% 29.17 in 7.0 mi WNW 19.6 mph 26.5 mph 0.00 in   Overcast
2:52 AM 37.9 °F 28.2 °F 35.1 °F 89% 29.19 in 7.0 mi WNW 18.4 mph - N/A   Overcast
3:52 AM 36.0 °F 25.0 °F 33.1 °F 89% 29.20 in 6.0 mi WNW 20.7 mph 27.6 mph 0.00 in   Overcast
4:03 AM 36.0 °F 25.0 °F 33.1 °F 89% 29.19 in 6.0 mi WNW 20.7 mph 29.9 mph N/A   Overcast
4:21 AM 35.1 °F 22.7 °F 32.0 °F 89% 29.19 in 3.0 mi WNW 25.3 mph 33.4 mph 0.00 in   Overcast
4:52 AM 34.0 °F 21.8 °F 30.9 °F 89% 29.22 in 3.0 mi WNW 23.0 mph 33.4 mph 0.00 in   Overcast
5:28 AM 33.1 °F 19.6 °F 30.0 °F 89% 29.23 in 7.0 mi WNW 27.6 mph 35.7 mph 0.01 in Rain Light Rain
5:52 AM 32.0 °F 19.8 °F 28.9 °F 88% 29.25 in 1.8 mi West 20.7 mph - 0.03 in Snow Light Snow
6:07 AM 32.0 °F 18.4 °F 28.9 °F 88% 29.24 in 0.8 mi WNW 26.5 mph 34.5 mph 0.01 in Snow Light Snow
6:24 AM 30.9 °F 17.2 °F 28.9 °F 92% 29.25 in 0.2 mi WNW 25.3 mph 33.4 mph 0.04 in Fog , Snow Heavy Snow
6:32 AM 30.9 °F 18.1 °F 28.9 °F 92% 29.26 in 0.5 mi West 21.9 mph 33.4 mph 0.05 in Fog , Snow Snow
6:40 AM 30.9 °F 17.5 °F 28.0 °F 89% 29.27 in 0.5 mi West 24.2 mph 31.1 mph 0.05 in Fog , Snow Snow
6:48 AM 30.2 °F 16.2 °F 28.4 °F 93% 29.27 in 0.5 mi West 25.3 mph - 0.06 in Fog , Snow Snow
6:52 AM 30.0 °F 15.2 °F 28.0 °F 92% 29.29 in 0.8 mi West 28.8 mph 33.4 mph 0.06 in Snow Light Snow
7:15 AM 30.0 °F 15.2 °F 28.0 °F 92% 29.29 in 0.2 mi West 28.8 mph 33.4 mph 0.01 in Fog , Snow Snow
7:28 AM 30.0 °F 15.2 °F 27.0 °F 88% 29.29 in 0.5 mi West 28.8 mph 34.5 mph 0.01 in Fog , Snow Snow
7:43 AM 28.9 °F 13.5 °F 26.1 °F 89% 29.30 in 0.2 mi WNW 29.9 mph 36.8 mph 0.01 in Fog , Snow Snow
7:52 AM 28.9 °F 14.5 °F 27.0 °F 92% 29.32 in 0.5 mi West 25.3 mph - 0.01 in Fog , Snow Snow
8:17 AM 28.9 °F 13.5 °F 26.1 °F 89% 29.33 in 0.5 mi West 29.9 mph 35.7 mph 0.00 in Fog , Snow Light Snow
8:52 AM 28.9 °F 14.0 °F 25.0 °F 85% 29.38 in 0.8 mi West 27.6 mph 36.8 mph 0.01 in Snow Light Snow
8:59 AM 28.0 °F 12.8 °F 25.0 °F 88% 29.37 in 0.8 mi West 27.6 mph 35.7 mph 0.00 in Snow Light Snow
9:24 AM 28.0 °F 12.8 °F 24.1 °F 85% 29.38 in 1.5 mi West 27.6 mph 35.7 mph 0.00 in Snow Light Snow
9:52 AM 28.0 °F 11.5 °F 24.1 °F 85% 29.42 in 1.2 mi West 33.4 mph 39.1 mph 0.00 in Snow Light Snow
10:02 AM 28.0 °F 13.0 °F 25.0 °F 88% 29.41 in 1.2 mi West 26.5 mph - 0.00 in Snow Light Snow
10:08 AM 28.9 °F 13.7 °F 24.1 °F 82% 29.41 in 2.0 mi West 28.8 mph 36.8 mph 0.00 in Snow Light Snow
10:18 AM 28.0 °F 12.0 °F 24.1 °F 85% 29.42 in 3.0 mi West 31.1 mph 39.1 mph 0.00 in   Overcast
10:21 AM 28.0 °F 12.0 °F 23.0 °F 81% 29.42 in 2.5 mi West 31.1 mph 39.1 mph 0.00 in   Haze
10:52 AM 28.0 °F 11.5 °F 23.0 °F 81% 29.45 in 2.5 mi West 33.4 mph 38.0 mph 0.00 in   Overcast
11:01 AM 28.0 °F 12.0 °F 23.0 °F 81% 29.44 in 1.8 mi West 31.1 mph 39.1 mph 0.00 in   Overcast
11:08 AM 28.0 °F 13.3 °F 23.0 °F 81% 29.45 in 3.0 mi West 25.3 mph - 0.00 in   Overcast
11:32 AM 27.0 °F 11.3 °F 21.9 °F 81% 29.46 in 2.5 mi West 27.6 mph 39.1 mph 0.00 in   Overcast
11:39 AM 27.0 °F 11.6 °F 21.9 °F 81% 29.47 in 6.0 mi West 26.5 mph 38.0 mph 0.00 in   Haze
11:48 AM 26.6 °F 9.8 °F 21.2 °F 80% 29.47 in 1.8 mi West 32.2 mph 40.3 mph 0.00 in   Overcast
11:52 AM 27.0 °F 10.3 °F 21.9 °F 81% 29.49 in 1.5 mi West 32.2 mph 43.7 mph 0.00 in   Overcast
12:17 PM 26.1 °F 9.8 °F 21.9 °F 84% 29.49 in 1.5 mi West 28.8 mph 39.1 mph 0.00 in Rain Light Freezing Rain
12:25 PM 26.1 °F 10.4 °F 23.0 °F 88% 29.49 in 2.0 mi West 26.5 mph 35.7 mph 0.00 in Rain Light Freezing Rain
12:33 PM 27.0 °F 11.6 °F 23.0 °F 85% 29.50 in 1.8 mi West 26.5 mph 33.4 mph 0.00 in Rain Light Freezing Rain
12:37 PM 27.0 °F 12.8 °F 23.0 °F 85% 29.50 in 2.0 mi West 21.9 mph - 0.00 in Rain Light Freezing Rain
12:43 PM 27.0 °F 12.8 °F 24.1 °F 89% 29.51 in 2.5 mi West 21.9 mph - 0.00 in Snow Light Snow
12:50 PM 26.6 °F 11.1 °F 23.0 °F 86% 29.51 in 0.8 mi West 26.5 mph 31.1 mph 0.00 in Snow Light Snow
12:52 PM 27.0 °F 11.9 °F 23.0 °F 85% 29.54 in 0.5 mi West 25.3 mph 31.1 mph 0.00 in Fog , Snow Light Snow
1:06 PM 26.1 °F 10.7 °F 21.9 °F 84% 29.53 in 0.5 mi West 25.3 mph 34.5 mph 0.01 in Fog Light Freezing Fog
1:26 PM 26.1 °F 11.0 °F 21.9 °F 84% 29.54 in 1.0 mi West 24.2 mph - 0.01 in Snow Light Snow
1:35 PM 26.1 °F 11.3 °F 23.0 °F 88% 29.55 in 0.8 mi West 23.0 mph 31.1 mph 0.01 in Snow Light Snow
1:41 PM 26.1 °F 11.6 °F 23.0 °F 88% 29.55 in 1.0 mi West 21.9 mph 31.1 mph 0.01 in Snow Light Snow
1:43 PM 26.1 °F 11.6 °F 23.0 °F 88% 29.55 in 0.8 mi West 21.9 mph - 0.01 in Snow Light Snow
1:52 PM 26.1 °F 11.3 °F 23.0 °F 88% 29.58 in 0.5 mi West 23.0 mph 29.9 mph 0.02 in Fog , Snow Snow
2:20 PM 26.1 °F 12.0 °F 21.9 °F 84% 29.58 in 1.0 mi West 20.7 mph 28.8 mph 0.00 in Snow Light Snow
2:38 PM 25.0 °F 8.1 °F 21.0 °F 85% 29.60 in 0.5 mi West 29.9 mph 36.8 mph 0.00 in Fog , Snow Light Snow
2:50 PM 24.8 °F 9.0 °F 21.2 °F 86% 29.61 in 1.0 mi West 25.3 mph 38.0 mph 0.00 in Snow Light Snow
2:52 PM 25.0 °F 8.9 °F 21.0 °F 85% 29.63 in 1.0 mi West 26.5 mph 38.0 mph 0.00 in Snow Light Snow
3:21 PM 25.0 °F 8.9 °F 21.0 °F 85% 29.63 in 1.2 mi West 26.5 mph 35.7 mph 0.00 in Snow Light Snow
3:29 PM 26.1 °F 11.0 °F 21.0 °F 81% 29.64 in 3.0 mi West 24.2 mph 29.9 mph 0.00 in   Haze
3:41 PM 25.0 °F 9.5 °F 19.9 °F 81% 29.65 in 2.0 mi West 24.2 mph 34.5 mph 0.00 in   Haze
3:52 PM 26.1 °F 11.6 °F 19.9 °F 78% 29.68 in 3.0 mi West 21.9 mph 33.4 mph 0.00 in Snow Light Snow
4:52 PM 25.0 °F 9.5 °F 19.9 °F 81% 29.73 in 5.0 mi West 24.2 mph 32.2 mph 0.00 in   Haze
5:16 PM 25.0 °F 9.9 °F 19.9 °F 81% 29.72 in 1.8 mi West 23.0 mph 33.4 mph 0.00 in Snow Light Snow
5:32 PM 25.0 °F 10.9 °F 21.0 °F 85% 29.73 in 3.0 mi West 19.6 mph - 0.00 in Snow Light Snow
5:52 PM 25.0 °F 9.9 °F 19.9 °F 81% 29.77 in 6.0 mi West 23.0 mph 28.8 mph 0.00 in   Haze
6:52 PM 25.0 °F 10.9 °F 19.9 °F 81% 29.80 in 4.0 mi West 19.6 mph - 0.00 in Snow Light Snow
7:52 PM 26.1 °F 12.3 °F 19.9 °F 78% 29.83 in 8.0 mi West 19.6 mph - 0.00 in Snow Light Snow
8:52 PM 26.1 °F 11.6 °F 19.9 °F 78% 29.84 in 10.0 mi West 21.9 mph - 0.00 in   Overcast
9:52 PM 24.1 °F 7.7 °F 18.0 °F 77% 29.87 in 8.0 mi WNW 26.5 mph 34.5 mph N/A   Overcast
10:11 PM 24.1 °F 8.7 °F 18.0 °F 77% 29.86 in 1.8 mi WNW 23.0 mph - 0.00 in Snow Light Snow
10:19 PM 23.0 °F 8.7 °F 17.1 °F 78% 29.86 in 3.0 mi WNW 18.4 mph - 0.00 in Snow Light Snow
10:52 PM 21.9 °F 9.2 °F 16.0 °F 78% 29.91 in 10.0 mi WNW 13.8 mph - 0.00 in   Overcast
11:52 PM 21.0 °F 4.3 °F 14.0 °F 74% 29.93 in 10.0 mi WNW 24.2 mph - N/A   Overcast